Atmospheric History
12/06/2017 18:45  to  12/7/2017 18:45
Change End Date:
To complete the export process:
1) Select all of the data below
2) Copy the data to the clipboard
3) Open a word processor such as Notepad
4) Paste the data into the word processor
5) Save the file

Date/Time (MDT), AirTemp, RH, Dewpoint ,AvgWindSpeed, GustWindSpeed, WindDirection, PrecipType, PrecipIntensity, PrecipAccumulation, PrecipRate
12/07/2017 18:40, 22, 64, 12 ,6, 9, W, None, None, ,  
12/07/2017 18:36, 22, 64, 12 ,7, 9, W, None, None, ,  
12/07/2017 18:25, 22, 65, 13 ,7, 10, NW, None, None, ,  
12/07/2017 18:25, 22, 65, 13 ,7, 10, NW, None, None, ,  
12/07/2017 18:15, 22, 65, 13 ,8, 12, W, None, None, ,  
12/07/2017 18:10, 22, 66, 13 ,8, 11, W, None, None, ,  
12/07/2017 18:05, 22, 66, 13 ,7, 11, W, None, None, ,  
12/07/2017 17:55, 22, 65, 13 ,7, 12, W, None, None, ,  
12/07/2017 17:55, 22, 66, 13 ,7, 12, W, None, None, ,  
12/07/2017 17:45, 23, 64, 13 ,9, 12, W, None, None, ,  
12/07/2017 17:35, 23, 63, 12 ,7, 13, W, None, None, ,  
12/07/2017 17:25, 23, 63, 13 ,9, 12, W, None, None, ,  
12/07/2017 17:24, 23, 63, 13 ,9, 14, W, None, None, ,  
12/07/2017 17:15, 24, 63, 13 ,11, 16, W, None, None, ,  
12/07/2017 17:09, 24, 63, 13 ,12, 17, W, None, None, ,  
12/07/2017 17:05, 24, 63, 13 ,12, 17, W, None, None, ,  
12/07/2017 16:55, 24, 63, 13 ,9, 14, W, None, None, ,  
12/07/2017 16:54, 24, 63, 13 ,9, 14, W, None, None, ,  
12/07/2017 16:45, 24, 62, 13 ,11, 16, W, None, None, ,  
12/07/2017 16:39, 24, 63, 13 ,10, 16, W, None, None, ,  
12/07/2017 16:35, 24, 64, 14 ,7, 16, W, None, None, ,  
12/07/2017 16:25, 25, 62, 14 ,7, 12, W, None, None, ,  
12/07/2017 16:24, 25, 62, 14 ,6, 12, W, None, None, ,  
12/07/2017 16:15, 25, 61, 14 ,7, 11, W, None, None, ,  
12/07/2017 16:09, 25, 61, 13 ,4, 14, SW, None, None, ,  
12/07/2017 16:05, 25, 60, 14 ,7, 17, SW, None, None, ,  
12/07/2017 15:55, 26, 59, 13 ,10, 17, W, None, None, ,  
12/07/2017 15:55, 26, 59, 13 ,11, 17, W, None, None, ,  
12/07/2017 15:44, 26, 57, 13 ,7, 16, W, None, None, ,  
12/07/2017 15:40, 26, 57, 13 ,11, 17, W, None, None, ,  
12/07/2017 15:34, 26, 57, 13 ,12, 17, W, None, None, ,  
12/07/2017 15:25, 26, 58, 13 ,9, 17, SW, None, None, ,  
12/07/2017 15:24, 26, 58, 13 ,8, 17, SW, None, None, ,  
12/07/2017 15:14, 27, 59, 14 ,9, 16, W, None, None, ,  
12/07/2017 15:10, 27, 57, 14 ,11, 16, W, None, None, ,  
12/07/2017 15:04, 27, 54, 13 ,7, 16, SW, None, None, ,  
12/07/2017 14:55, 26, 57, 13 ,7, 17, W, None, None, ,  
12/07/2017 14:54, 27, 57, 14 ,7, 17, W, None, None, ,  
12/07/2017 14:44, 27, 56, 13 ,11, 18, W, None, None, ,  
12/07/2017 14:40, 27, 54, 13 ,11, 16, SW, None, None, ,  
12/07/2017 14:34, 27, 54, 12 ,7, 19, W, None, None, ,  
12/07/2017 14:25, 27, 51, 11 ,12, 22, SW, None, None, ,  
12/07/2017 14:24, 27, 51, 11 ,14, 22, SW, None, None, ,  
12/07/2017 14:14, 27, 50, 11 ,14, 18, SW, None, None, ,  
12/07/2017 14:10, 27, 49, 11 ,12, 17, SW, None, None, ,  
12/07/2017 14:04, 27, 50, 11 ,9, 15, SW, None, None, ,  
12/07/2017 13:55, 27, 48, 11 ,6, 14, W, None, None, ,  
12/07/2017 13:54, 27, 49, 11 ,7, 14, W, None, None, ,  
12/07/2017 13:44, 28, 47, 11 ,6, 13, W, None, None, ,  
12/07/2017 13:40, 28, 48, 11 ,9, 15, W, None, None, ,  
12/07/2017 13:34, 27, 48, 10 ,8, 13, SW, None, None, ,  
12/07/2017 13:25, 27, 47, 10 ,9, 12, W, None, None, ,  
12/07/2017 13:24, 27, 47, 10 ,7, 12, SW, None, None, ,  
12/07/2017 13:14, 28, 48, 11 ,6, 12, W, None, None, ,  
12/07/2017 13:10, 28, 48, 10 ,7, 12, W, None, None, ,  
12/07/2017 13:03, 28, 48, 11 ,7, 15, W, None, None, ,  
12/07/2017 12:55, 27, 47, 10 ,8, 14, W, None, None, ,  
12/07/2017 12:53, 27, 47, 10 ,7, 13, W, None, None, ,  
12/07/2017 12:43, 28, 47, 10 ,7, 11, W, None, None, ,  
12/07/2017 12:40, 27, 47, 10 ,6, 11, SW, None, None, ,  
12/07/2017 12:33, 27, 48, 10 ,5, 12, W, None, None, ,  
12/07/2017 12:25, 27, 48, 10 ,5, 8, W, None, None, ,  
12/07/2017 12:23, 27, 47, 10 ,6, 9, W, None, None, ,  
12/07/2017 12:13, 25, 52, 10 ,7, 12, W, None, None, ,  
12/07/2017 12:10, 25, 52, 10 ,6, 16, W, None, None, ,  
12/07/2017 12:03, 25, 53, 10 ,9, 16, W, None, None, ,  
12/07/2017 11:55, 24, 53, 10 ,8, 16, SW, None, None, ,  
12/07/2017 11:53, 24, 53, 10 ,9, 17, W, None, None, ,  
12/07/2017 11:43, 23, 55, 9 ,12, 18, W, None, None, ,  
12/07/2017 11:40, 23, 56, 9 ,12, 17, W, None, None, ,  
12/07/2017 11:33, 22, 57, 10 ,10, 18, W, None, None, ,  
12/07/2017 11:25, 22, 59, 10 ,12, 17, W, None, None, ,  
12/07/2017 11:23, 22, 58, 10 ,11, 17, W, None, None, ,  
12/07/2017 11:13, 21, 60, 10 ,7, 15, W, None, None, ,  
12/07/2017 11:10, 21, 60, 10 ,7, 15, W, None, None, ,  
12/07/2017 11:03, 21, 61, 9 ,6, 13, W, None, None, ,  
12/07/2017 10:55, 20, 62, 9 ,6, 12, SW, None, None, ,  
12/07/2017 10:53, 20, 62, 9 ,6, 12, W, None, None, ,  
12/07/2017 10:43, 20, 63, 10 ,5, 9, SW, None, None, ,  
12/07/2017 10:40, 20, 64, 10 ,4, 12, W, None, None, ,  
12/07/2017 10:33, 19, 64, 10 ,6, 13, W, None, None, ,  
12/07/2017 10:25, 19, 65, 10 ,7, 14, W, None, None, ,  
12/07/2017 10:22, 19, 66, 10 ,8, 14, W, None, None, ,  
12/07/2017 10:12, 19, 65, 10 ,7, 14, W, None, None, ,  
12/07/2017 10:10, 19, 65, 10 ,7, 14, W, None, None, ,  
12/07/2017 10:02, 19, 65, 9 ,8, 15, W, None, None, ,  
12/07/2017 09:55, 19, 66, 9 ,8, 16, W, None, None, ,  
12/07/2017 09:52, 19, 66, 9 ,10, 16, W, None, None, ,  
12/07/2017 09:42, 19, 66, 9 ,9, 14, W, None, None, ,  
12/07/2017 09:40, 19, 66, 9 ,8, 16, W, None, None, ,  
12/07/2017 09:32, 18, 66, 9 ,10, 16, W, None, None, ,  
12/07/2017 09:25, 18, 66, 9 ,10, 15, W, None, None, ,  
12/07/2017 09:22, 18, 66, 9 ,11, 15, W, None, None, ,  
12/07/2017 09:12, 18, 65, 9 ,10, 13, W, None, None, ,  
12/07/2017 09:10, 18, 65, 9 ,9, 13, W, None, None, ,  
12/07/2017 09:02, 18, 65, 8 ,9, 14, W, None, None, ,  
12/07/2017 08:55, 18, 66, 8 ,10, 13, W, None, None, ,  
12/07/2017 08:52, 17, 67, 8 ,7, 13, W, None, None, ,  
12/07/2017 08:42, 17, 67, 8 ,9, 16, W, None, None, ,  
12/07/2017 08:40, 17, 67, 8 ,11, 16, W, None, None, ,  
12/07/2017 08:32, 17, 70, 8 ,11, 17, W, None, None, ,  
12/07/2017 08:25, 16, 71, 9 ,12, 17, W, None, None, ,  
12/07/2017 08:22, 16, 70, 8 ,11, 16, W, None, None, ,  
12/07/2017 08:12, 17, 68, 8 ,12, 16, W, None, None, ,  
12/07/2017 08:10, 17, 68, 8 ,10, 14, W, None, None, ,  
12/07/2017 08:02, 17, 67, 8 ,8, 16, W, None, None, ,  
12/07/2017 07:54, 17, 68, 8 ,9, 13, W, None, None, ,  
12/07/2017 07:52, 17, 67, 8 ,9, 13, W, None, None, ,  
12/07/2017 07:42, 16, 72, 8 ,9, 14, W, None, None, ,  
12/07/2017 07:39, 16, 72, 8 ,9, 14, W, None, None, ,  
12/07/2017 07:32, 16, 72, 8 ,9, 11, W, None, None, ,  
12/07/2017 07:23, 16, 72, 8 ,9, 13, W, None, None, ,  
12/07/2017 07:21, 15, 74, 8 ,9, 12, W, None, None, ,  
12/07/2017 07:11, 15, 75, 9 ,9, 14, W, None, None, ,  
12/07/2017 07:10, 15, 76, 9 ,9, 14, W, None, None, ,  
12/07/2017 07:01, 15, 77, 9 ,9, 13, W, None, None, ,  
12/07/2017 06:55, 15, 77, 9 ,9, 13, W, None, None, ,  
12/07/2017 06:51, 15, 76, 9 ,9, 16, W, None, None, ,  
12/07/2017 06:41, 15, 75, 9 ,13, 18, W, None, None, ,  
12/07/2017 06:40, 16, 74, 9 ,12, 18, W, None, None, ,  
12/07/2017 06:31, 16, 72, 9 ,10, 15, W, None, None, ,  
12/07/2017 06:25, 17, 68, 8 ,9, 16, W, None, None, ,  
12/07/2017 06:21, 16, 71, 9 ,10, 16, W, None, None, ,  
12/07/2017 06:11, 15, 76, 9 ,8, 16, W, None, None, ,  
12/07/2017 06:10, 15, 76, 9 ,8, 16, W, None, None, ,  
12/07/2017 06:01, 15, 76, 9 ,8, 12, W, None, None, ,  
12/07/2017 05:55, 16, 75, 9 ,9, 15, W, None, None, ,  
12/07/2017 05:51, 16, 74, 9 ,10, 15, W, None, None, ,  
12/07/2017 05:41, 16, 75, 9 ,8, 13, W, None, None, ,  
12/07/2017 05:40, 16, 75, 9 ,9, 13, W, None, None, ,  
12/07/2017 05:31, 16, 74, 9 ,6, 11, W, None, None, ,  
12/07/2017 05:25, 16, 73, 9 ,6, 12, W, None, None, ,  
12/07/2017 05:21, 16, 74, 9 ,7, 12, W, None, None, ,  
12/07/2017 05:11, 15, 77, 10 ,7, 14, W, None, None, ,  
12/07/2017 05:10, 15, 77, 10 ,8, 14, W, None, None, ,  
12/07/2017 05:01, 16, 76, 10 ,6, 10, W, None, None, ,  
12/07/2017 04:55, 16, 76, 10 ,6, 12, W, None, None, ,  
12/07/2017 04:51, 15, 77, 10 ,7, 12, W, None, None, ,  
12/07/2017 04:40, 15, 77, 10 ,7, 11, W, None, None, ,  
12/07/2017 04:40, 15, 77, 10 ,7, 11, W, None, None, ,  
12/07/2017 04:30, 15, 78, 10 ,6, 11, W, None, None, ,  
12/07/2017 04:25, 15, 80, 10 ,7, 10, W, None, None, ,  
12/07/2017 04:20, 15, 80, 10 ,6, 11, W, None, None, ,  
12/07/2017 04:10, 15, 80, 10 ,8, 14, W, None, None, ,  
12/07/2017 04:10, 15, 80, 10 ,8, 14, W, None, None, ,  
12/07/2017 04:00, 15, 80, 10 ,9, 16, W, None, None, ,  
12/07/2017 03:55, 15, 80, 10 ,9, 17, W, None, None, ,  
12/07/2017 03:50, 15, 80, 10 ,9, 17, W, None, None, ,  
12/07/2017 03:40, 15, 80, 10 ,9, 15, W, None, None, ,  
12/07/2017 03:40, 15, 80, 10 ,9, 15, W, None, None, ,  
12/07/2017 03:30, 15, 81, 10 ,9, 13, W, None, None, ,  
12/07/2017 03:25, 15, 81, 10 ,10, 13, SW, None, None, ,  
12/07/2017 03:20, 15, 81, 10 ,9, 14, W, None, None, ,  
12/07/2017 03:10, 15, 81, 10 ,9, 16, W, None, None, ,  
12/07/2017 03:10, 15, 81, 10 ,9, 16, W, None, None, ,  
12/07/2017 03:00, 14, 83, 10 ,10, 15, W, None, None, ,  
12/07/2017 02:55, 14, 83, 10 ,11, 16, W, None, None, ,  
12/07/2017 02:50, 15, 82, 10 ,7, 16, W, None, None, ,  
12/07/2017 02:40, 14, 83, 10 ,7, 14, W, None, None, ,  
12/07/2017 02:40, 14, 83, 10 ,7, 14, W, None, None, ,  
12/07/2017 02:30, 15, 82, 11 ,9, 16, W, None, None, ,  
12/07/2017 02:25, 15, 81, 11 ,9, 16, W, None, None, ,  
12/07/2017 02:20, 16, 80, 11 ,9, 14, W, None, None, ,  
12/07/2017 02:10, 16, 79, 11 ,8, 14, W, None, None, ,  
12/07/2017 02:10, 16, 79, 11 ,8, 14, W, None, None, ,  
12/07/2017 02:00, 16, 78, 11 ,9, 17, W, None, None, ,  
12/07/2017 01:55, 16, 78, 11 ,11, 17, W, None, None, ,  
12/07/2017 01:50, 16, 79, 11 ,14, 18, W, None, None, ,  
12/07/2017 01:40, 16, 80, 11 ,11, 17, W, None, None, ,  
12/07/2017 01:40, 16, 80, 11 ,11, 17, W, None, None, ,  
12/07/2017 01:30, 16, 80, 11 ,12, 19, W, None, None, ,  
12/07/2017 01:25, 16, 81, 11 ,11, 19, W, None, None, ,  
12/07/2017 01:20, 15, 81, 11 ,12, 19, W, None, None, ,  
12/07/2017 01:10, 16, 81, 11 ,9, 14, W, None, None, ,  
12/07/2017 01:10, 15, 81, 11 ,9, 14, W, None, None, ,  
12/07/2017 01:00, 15, 81, 11 ,9, 16, W, None, None, ,  
12/07/2017 00:55, 15, 82, 11 ,9, 16, W, None, None, ,  
12/07/2017 00:50, 15, 82, 11 ,11, 16, W, None, None, ,  
12/07/2017 00:40, 15, 83, 11 ,12, 19, W, None, None, ,  
12/07/2017 00:40, 15, 83, 11 ,14, 19, W, None, None, ,  
12/07/2017 00:29, 15, 82, 11 ,11, 17, W, None, None, ,  
12/07/2017 00:25, 15, 82, 11 ,10, 17, W, None, None, ,  
12/07/2017 00:19, 15, 83, 11 ,12, 18, W, None, None, ,  
12/07/2017 00:10, 15, 83, 11 ,10, 16, W, None, None, ,  
12/07/2017 00:09, 15, 83, 11 ,9, 16, W, None, None, ,  
12/06/2017 23:59, 15, 82, 11 ,10, 17, W, None, None, ,  
12/06/2017 23:55, 15, 82, 11 ,9, 17, W, None, None, ,  
12/06/2017 23:49, 15, 81, 11 ,9, 16, W, None, None, ,  
12/06/2017 23:40, 15, 82, 11 ,9, 16, W, None, None, ,  
12/06/2017 23:39, 15, 82, 11 ,9, 16, W, None, None, ,  
12/06/2017 23:29, 15, 81, 11 ,11, 17, W, None, None, ,  
12/06/2017 23:25, 15, 81, 11 ,9, 16, W, None, None, ,  
12/06/2017 23:19, 15, 81, 11 ,9, 13, W, None, None, ,  
12/06/2017 23:10, 15, 82, 10 ,7, 16, W, None, None, ,  
12/06/2017 23:09, 15, 82, 10 ,8, 16, W, None, None, ,  
12/06/2017 22:59, 15, 81, 10 ,10, 17, W, None, None, ,  
12/06/2017 22:55, 15, 81, 10 ,9, 15, W, None, None, ,  
12/06/2017 22:49, 15, 81, 10 ,9, 16, W, None, None, ,  
12/06/2017 22:40, 15, 81, 10 ,10, 16, W, None, None, ,  
12/06/2017 22:39, 15, 82, 10 ,9, 13, W, None, None, ,  
12/06/2017 22:29, 14, 82, 10 ,9, 15, W, None, None, ,  
12/06/2017 22:25, 15, 82, 10 ,11, 15, W, None, None, ,  
12/06/2017 22:19, 14, 82, 10 ,11, 14, W, None, None, ,  
12/06/2017 22:11, 14, 82, 10 ,9, 15, W, None, None, ,  
12/06/2017 22:09, 15, 82, 10 ,9, 15, W, None, None, ,  
12/06/2017 21:59, 15, 82, 10 ,9, 14, W, None, None, ,  
12/06/2017 21:56, 15, 82, 10 ,11, 14, W, None, None, ,  
12/06/2017 21:49, 15, 81, 10 ,9, 14, W, None, None, ,  
12/06/2017 21:40, 15, 80, 10 ,11, 16, W, None, None, ,  
12/06/2017 21:39, 15, 80, 10 ,11, 16, W, None, None, ,  
12/06/2017 21:29, 15, 80, 10 ,12, 16, W, None, None, ,  
12/06/2017 21:25, 15, 81, 10 ,8, 15, W, None, None, ,  
12/06/2017 21:19, 15, 80, 10 ,9, 16, W, None, None, ,  
12/06/2017 21:10, 15, 79, 10 ,11, 16, W, None, None, ,  
12/06/2017 21:09, 15, 79, 10 ,10, 16, W, None, None, ,  
12/06/2017 20:59, 16, 78, 11 ,10, 16, SW, None, None, ,  
12/06/2017 20:55, 16, 79, 11 ,9, 14, W, None, None, ,  
12/06/2017 20:48, 16, 79, 11 ,8, 14, W, None, None, ,  
12/06/2017 20:40, 16, 78, 11 ,7, 12, W, None, None, ,  
12/06/2017 20:38, 16, 78, 11 ,7, 12, W, None, None, ,  
12/06/2017 20:28, 17, 77, 11 ,9, 15, W, None, None, ,  
12/06/2017 20:25, 17, 76, 11 ,7, 12, W, None, None, ,  
12/06/2017 20:18, 17, 77, 11 ,7, 10, W, None, None, ,  
12/06/2017 20:10, 17, 76, 11 ,8, 14, SW, None, None, ,  
12/06/2017 20:08, 17, 76, 11 ,7, 14, SW, None, None, ,  
12/06/2017 19:58, 17, 75, 11 ,9, 12, W, None, None, ,  
12/06/2017 19:56, 17, 75, 11 ,8, 12, W, None, None, ,  
12/06/2017 19:48, 17, 75, 11 ,7, 11, W, None, None, ,  
12/06/2017 19:40, 17, 75, 11 ,7, 12, W, None, None, ,  
12/06/2017 19:38, 17, 75, 11 ,9, 12, W, None, None, ,  
12/06/2017 19:28, 17, 75, 11 ,7, 12, W, None, None, ,  
12/06/2017 19:25, 17, 75, 11 ,7, 12, SW, None, None, ,  
12/06/2017 19:18, 17, 75, 11 ,8, 13, W, None, None, ,  
12/06/2017 19:10, 17, 76, 11 ,8, 13, W, None, None, ,  
12/06/2017 19:08, 17, 76, 11 ,10, 13, W, None, None, ,  
12/06/2017 18:58, 17, 76, 11 ,7, 12, W, None, None, ,  
12/06/2017 18:55, 17, 77, 11 ,6, 11, W, None, None, ,  
12/06/2017 18:48, 17, 77, 11 ,6, 11, W, None, None, ,  
Change End Date:

Copyright © 1998-2015 Vaisala, Inc.
All Rights Reserved
Send comments about the data to:
SCAN Web ® is a registered trademark of Vaisala, Inc.
SCAN Web Version 6.0